Regional Weather Roundup
Issued by NWS Cleveland, OH

Home | Current Version | Previous Version | Graphics & Text | Print | Product List | Glossary On
Versions: 1 2 3 4 5 6 7 8 9 10 11 12 13 14 15 16 17 18 19 20 21 22 23 24 25 26 27 28 29 30 31 32 33 34 35 36 37 38 39 40 41 42 43 44 45 46 47 48 49 50
000
ASUS41 KCLE 292110
RWRCLE
OHIO REGIONAL WEATHER ROUNDUP
NATIONAL WEATHER SERVICE CLEVELAND, OH
500 PM EDT TUE JUL 29 2014

NOTE: "FAIR" INDICATES FEW OR NO CLOUDS BELOW 12,000 FEET WITH NO
SIGNIFICANT WEATHER AND/OR OBSTRUCTIONS TO VISIBILITY.

OHZ001>008-015>018-024>027-034-035-043-044-292200-
   NORTHWEST OHIO

CITY           SKY/WX    TMP DP  RH WIND       PRES   REMARKS
DEFIANCE       MOSUNNY   73  53  49 W6        30.00F
FINDLAY        PTSUNNY   73  52  47 W13       30.01S
TOLEDO EXPRESS MOSUNNY   73  53  49 W14G20    29.98F
TOLEDO EXEC    PTSUNNY   73  51  46 W14       29.99F
LIMA           PTSUNNY   70  55  59 W12       30.03S
$$

OHZ009>014-019>023-028>033-038-089-292200-
   NORTHEAST OHIO

CITY           SKY/WX    TMP DP  RH WIND       PRES   REMARKS
CLE-HOPKINS    MOSUNNY   70  50  49 W8        30.02S
CLE-LAKEFRONT  SUNNY     69  50  50 W14       29.98F
CUY CO. ARPT   MOSUNNY   70  55  60 W12       30.01S
LORAIN-ELYRIA  MOSUNNY   73  51  46 NW8       30.01S
ASHTABULA      MOSUNNY   68  51  54 NW8       30.00S
AKRON-CANTON   PTSUNNY   70  48  45 W7        30.01S
WOOSTER        MOSUNNY   69  50  50 W5        30.02F
MANSFIELD      MOSUNNY   68  50  52 W7        30.03F
YOUNGSTOWN     MOSUNNY   68  49  50 W9        30.00S
$$

OHZ042-051>053-060>062-070>072-077>081-292200-
  SOUTHWEST OHIO

CITY           SKY/WX    TMP DP  RH WIND       PRES   REMARKS
CINC-COVINGTON MOSUNNY   72  51  47 W12       30.07S
CINC-LUNKEN    PTSUNNY   73  52  47 VRB3      30.06S
HAMILTON       CLOUDY    72  55  55 VRB5      30.07S
DAYTON         PTSUNNY   72  53  51 W8        30.06S
WRIGHT-PAT AFB PTSUNNY   70  52  53 W1        30.05S
DAYTON GENERAL MOSUNNY   70  52  52 NW5       30.05F
WILMINGTON     PTSUNNY   70  50  49 NW8       30.06S
$$

OHZ036-037-039>041-045>050-054>059-063>069-073>076-082>088-292200-
  CENTRAL AND SOUTHEAST OHIO

CITY           SKY/WX    TMP DP  RH WIND       PRES   REMARKS
COLUMBUS       MOSUNNY   71  47  42 NW6       30.03S
OSU AIRPORT    MOSUNNY   69  50  50 W6        30.04S
BOLTON FIELD   MOSUNNY   70  54  56 NW6       30.05S
RICKENBACK AFB PTSUNNY   72  44  36 W9        30.03S
NEWARK         MOSUNNY   68  48  48 W7        30.03S
MARION         PTSUNNY   70  51  51 VRB6      30.03F
LANCASTER      MOSUNNY   69  49  48 W7        30.04S
ZANESVILLE     MOSUNNY   67  48  50 NW8       30.03S
NEW PHILLY     MOSUNNY   68  51  54 W8        30.03R
$$



USA.gov is the U.S. government's official web portal to all federal, state and local government web resources and services.